Regional Weather Roundup
Issued by NWS Newport/Morehead, NC

Current Version | Previous Version | Text Only | Print | Product List | Glossary Off
Versions: 1 2 3 4 5 6 7 8 9 10 11 12 13 14 15 16 17 18 19 20 21 22 23 24 25 26 27 28 29 30 31 32 33 34 35 36 37 38 39 40 41 42 43 44 45 46 47 48 49 50
000 ASUS42 KMHX 281913 RWRMHX WEATHER ROUNDUP FOR EASTERN NORTH CAROLINA NATIONAL WEATHER SERVICE NEWPORT/MOREHEAD CITY NC 300 PM EDT THU MAY 28 2015 NOTE: "FAIR" INDICATES FEW OR NO CLOUDS BELOW 12,000 FEET WITH NO SIGNIFICANT WEATHER AND/OR OBSTRUCTIONS TO VISIBILITY NCZ015>017-031-032-045>047-102-103-282000- NORTH COAST CITY SKY/WX TMP DP RH WIND PRES REMARKS EDENTON N/A 83 69 61 S5 30.21F ELIZABETH CITY PTSUNNY 81 69 67 SE8 30.21F KITTY HAWK CLEAR 80 63 55 S8 30.22S MANTEO SUNNY 77 63 61 S13 30.24S $$ NCZ045>047-081-094-103-104-282000- CENTRAL COAST CITY SKY/WX TMP DP RH WIND PRES REMARKS FRISCO SUNNY 81 60 48 S8 30.24F SWANQUARTER N/A 81 N/A N/A S9G15 30.21S $$ NCZ095-097-098-100-101-282000- SOUTHERN COAST CITY SKY/WX TMP DP RH WIND PRES REMARKS BEAUFORT SUNNY 78 64 61 S9 30.23F CEDAR ISLAND N/A 81 N/A N/A SE9 30.27S JACKSONVILLE MOSUNNY 82 63 52 S9 30.22F PINEY ISLAND CLEAR N/A N/A N/A E8 30.23F WILMINGTON SUNNY 81 62 52 SE10 30.22F $$ NCZ011>013-027>030-043-044-078>080-089-090>093-098-282000- COASTAL PLAIN CITY SKY/WX TMP DP RH WIND PRES REMARKS AHOSKIE MOSUNNY 82 68 62 S7 30.20F CLINTON MOSUNNY 83 69 61 CALM 30.20F ELIZABETHTOWN MOSUNNY 85 64 48 S5 30.20F GOLDSBORO PTSUNNY 84 67 56 CALM 30.18F GREENVILLE PTSUNNY 84 68 58 SE5 30.21F HAVELOCK MOSUNNY 83 64 52 S10 30.23F KENANSVILLE MOSUNNY 83 64 51 CALM 30.21F KINSTON PTSUNNY 86 66 51 CALM 30.20F NEW BERN PTSUNNY 84 65 52 SE9 30.22F RICHLANDS MOSUNNY 84 64 51 SE8 30.21F ROCKY MOUNT MOSUNNY 85 69 58 VRB7 30.19F WASHINGTON PTSUNNY 83 66 57 CALM 30.21F WHITEVILLE PTSUNNY 84 65 52 E9 30.19F $$ AMZ130-135-150-152-154-156-158-170-250-252-270-ANZ085-086-088-633-658-670-282000- MARINE OBSERVATIONS STATION/POSITION TIME TEMP WIND PRES WAVE SWELL AIR SEA DIR/SP/G HT/PER HT/PER (UTC) (F) (DEG/KT/KT) (MB) (FT/S) (FT/S) CHESAPEAKE LIGHT 1800 68 170/ 22/ 23 1023.3 64 E VA BEACH 1850 68 65 190/ 6/ 6 1023.6 3/ 8 3/ 8 DUCK 1800 66 54 140/ 11/ 15 1022.6 2 E DUCK 1811 62 N/A 2/ 8 OREGON INLET 1800 77 77 170/ 11/ 15 1023.8 13E OREGON INLT 1900 72 N/A 3/ 8 HATTERAS CG 1800 76 75 150/ 6/ 9 1023.8 DIAMOND BUOY 1850 75 78 110/ 6/ 8 1024.1 3/ 9 3/ 9 CAPE LOOKOUT 1900 75 140/ 5/ 6 1023.6 BEAUFORT LAB 1800 76 76 180/ 9/ 11 1023.4 27 SE WRIGHTSVLE 1800 77 130/ 6/ 6 N/A 5 SE WRIGHTSVLE NOT AVBL 225 S CAPE HAT 1850 74 74 50/ 16/ 17 1022.4 5/ 8 3/ 8 41 SE CHARLESTON 1850 77 79 90/ 10/ 12 1022.7 3/ 8 3/ 8 $$

USA.gov is the U.S. government's official web portal to all federal, state and local government web resources and services.